When you browse on this site, cookies collect data to enhance your experience and personalize the content and advertising you see.
Visit our Privacy Policy to learn more. By continuing to use the site, you agree to this use of cookies and data.
  • In United Kingdom
  • List of Countries
  • For 7 days
  • Water Temperature
  • Satellite Maps
  • Weather Map
  • Weather Widgets
  • user-avatar
    Login

    Hourly Weather San Pedro Amuzgos

    Today, 20 June, Thursday

    Time Temperature Precipitation Wind Pressure Humidity
    00:00 +23°C° 0.2 mm 0 mps 717 mmHg 89%
    01:00 +23°C° 0.2 mm 0 mps 716 mmHg 90%
    02:00 +23°C° 0.2 mm 0 mps 716 mmHg 90%
    03:00 +23°C° 0 mm 0 mps 716 mmHg 90%
    04:00 +24°C° 0 mm 1 mps 716 mmHg 89%
    05:00 +24°C° 0 mm 1 mps 715 mmHg 89%
    06:00 +25°C° 0 mm 0 mps 716 mmHg 80%
    07:00 +27°C° 0 mm 0 mps 717 mmHg 71%
    08:00 +30°C° 0 mm 0 mps 717 mmHg 62%
    09:00 +33°C° 0 mm 1 mps 717 mmHg 56%
    10:00 +34°C° 0 mm 1 mps 717 mmHg 51%
    11:00 +37°C° 0 mm 2 mps 717 mmHg 45%
    12:00 +37°C° 0.2 mm 2 mps 717 mmHg 45%
    13:00 +36°C° 0.2 mm 3 mps 716 mmHg 46%
    14:00 +36°C° 0.2 mm 3 mps 715 mmHg 46%
    15:00 +35°C° 0.2 mm 3 mps 715 mmHg 52%
    16:00 +32°C° 0.2 mm 2 mps 715 mmHg 58%
    17:00 +31°C° 0.2 mm 2 mps 715 mmHg 64%
    18:00 +29°C° 0 mm 1 mps 715 mmHg 71%
    19:00 +28°C° 0 mm 1 mps 716 mmHg 77%
    20:00 +24°C° 0 mm 0 mps 716 mmHg 84%
    21:00 +24°C° 0 mm 0 mps 717 mmHg 85%
    22:00 +24°C° 0 mm 0 mps 717 mmHg 86%
    23:00 +25°C° 0 mm 1 mps 717 mmHg 87%

    Tomorrow, 21 June, Friday

    Time Temperature Precipitation Wind Pressure Humidity
    00:00 +25°C° 0 mm 1 mps 717 mmHg 87%
    01:00 +25°C° 0 mm 1 mps 716 mmHg 86%
    02:00 +25°C° 0 mm 1 mps 716 mmHg 86%
    03:00 +25°C° 0 mm 1 mps 716 mmHg 86%
    04:00 +25°C° 0 mm 1 mps 716 mmHg 85%
    05:00 +24°C° 0 mm 1 mps 716 mmHg 85%
    06:00 +25°C° 0 mm 0 mps 717 mmHg 75%
    07:00 +28°C° 0 mm 0 mps 717 mmHg 66%
    08:00 +30°C° 0 mm 0 mps 718 mmHg 57%
    09:00 +34°C° 0 mm 1 mps 718 mmHg 52%
    10:00 +35°C° 0 mm 1 mps 718 mmHg 46%
    11:00 +37°C° 0 mm 2 mps 718 mmHg 41%
    12:00 +37°C° 0.3 mm 2 mps 717 mmHg 43%
    13:00 +37°C° 0.3 mm 3 mps 717 mmHg 44%
    14:00 +37°C° 0.3 mm 3 mps 716 mmHg 45%
    15:00 +35°C° 0.6 mm 3 mps 716 mmHg 53%
    16:00 +32°C° 0.6 mm 2 mps 716 mmHg 60%
    17:00 +31°C° 0.6 mm 2 mps 716 mmHg 67%
    18:00 +29°C° 0.9 mm 1 mps 716 mmHg 74%
    19:00 +28°C° 0.9 mm 1 mps 717 mmHg 80%
    20:00 +24°C° 0.9 mm 0 mps 717 mmHg 87%
    21:00 +24°C° 0.3 mm 0 mps 717 mmHg 87%
    22:00 +24°C° 0.3 mm 0 mps 718 mmHg 87%
    23:00 +24°C° 0.3 mm 0 mps 718 mmHg 88%

    Day after tomorrow, 22 June, Saturday

    Time Temperature Precipitation Wind Pressure Humidity
    00:00 +26°C° 0.1 mm 1 mps 718 mmHg 87%
    01:00 +26°C° 0.1 mm 1 mps 717 mmHg 87%
    02:00 +25°C° 0.1 mm 1 mps 717 mmHg 87%
    03:00 +25°C° 0 mm 1 mps 717 mmHg 86%
    04:00 +25°C° 0 mm 1 mps 717 mmHg 84%
    05:00 +25°C° 0 mm 1 mps 717 mmHg 83%
    06:00 +27°C° 0 mm 1 mps 717 mmHg 74%
    07:00 +28°C° 0 mm 0 mps 718 mmHg 66%
    08:00 +30°C° 0 mm 0 mps 718 mmHg 57%
    09:00 +31°C° 0 mm 0 mps 718 mmHg 51%
    10:00 +35°C° 0 mm 1 mps 718 mmHg 45%
    11:00 +37°C° 0 mm 1 mps 718 mmHg 39%
    12:00 +37°C° 0.1 mm 2 mps 717 mmHg 41%
    13:00 +37°C° 0.1 mm 3 mps 717 mmHg 42%
    14:00 +37°C° 0.1 mm 4 mps 716 mmHg 44%
    15:00 +35°C° 0.5 mm 3 mps 716 mmHg 52%
    16:00 +31°C° 0.5 mm 2 mps 716 mmHg 60%
    17:00 +29°C° 0.5 mm 1 mps 716 mmHg 68%
    18:00 +28°C° 0.7 mm 1 mps 716 mmHg 73%
    19:00 +27°C° 0.7 mm 1 mps 717 mmHg 79%
    20:00 +24°C° 0.7 mm 0 mps 718 mmHg 84%
    21:00 +24°C° 0.2 mm 0 mps 718 mmHg 85%
    22:00 +24°C° 0.2 mm 0 mps 718 mmHg 86%
    23:00 +23°C° 0.2 mm 0 mps 718 mmHg 87%

    23 June, Sunday

    Time Temperature Precipitation Wind Pressure Humidity
    00:00 +23°C° 0.1 mm 0 mps 718 mmHg 87%
    01:00 +25°C° 0.1 mm 1 mps 717 mmHg 88%
    02:00 +25°C° 0.1 mm 1 mps 717 mmHg 88%
    03:00 +25°C° 0.1 mm 1 mps 717 mmHg 88%
    04:00 +24°C° 0.1 mm 1 mps 717 mmHg 88%
    05:00 +24°C° 0.1 mm 1 mps 717 mmHg 88%
    06:00 +24°C° 0.1 mm 0 mps 717 mmHg 84%
    07:00 +25°C° 0.1 mm 0 mps 717 mmHg 79%
    08:00 +26°C° 0.1 mm 0 mps 718 mmHg 75%
    09:00 +28°C° 0.1 mm 0 mps 718 mmHg 65%
    10:00 +32°C° 0.1 mm 1 mps 718 mmHg 56%
    11:00 +34°C° 0.1 mm 1 mps 718 mmHg 47%
    12:00 +34°C° 0.8 mm 2 mps 717 mmHg 56%
    13:00 +31°C° 0.8 mm 2 mps 716 mmHg 64%
    14:00 +30°C° 0.8 mm 3 mps 716 mmHg 73%
    15:00 +29°C° 1.6 mm 2 mps 715 mmHg 77%
    16:00 +28°C° 1.6 mm 1 mps 715 mmHg 82%
    17:00 +27°C° 1.6 mm 1 mps 715 mmHg 86%
    18:00 +24°C° 0.5 mm 0 mps 716 mmHg 88%
    19:00 +24°C° 0.5 mm 0 mps 716 mmHg 91%
    20:00 +23°C° 0.5 mm 0 mps 717 mmHg 93%
    21:00 +23°C° 1.1 mm 0 mps 717 mmHg 93%
    22:00 +23°C° 1.1 mm 0 mps 717 mmHg 93%
    23:00 +23°C° 1.1 mm 0 mps 717 mmHg 93%

    24 June, Monday

    Time Temperature Precipitation Wind Pressure Humidity
    00:00 +23°C° 0.8 mm 0 mps 717 mmHg 93%
    01:00 +23°C° 0.8 mm 0 mps 716 mmHg 93%
    02:00 +24°C° 0.8 mm 1 mps 716 mmHg 93%
    03:00 +24°C° 0 mm 1 mps 716 mmHg 93%
    04:00 +24°C° 0 mm 1 mps 716 mmHg 93%
    05:00 +24°C° 0 mm 1 mps 716 mmHg 92%
    06:00 +26°C° 0 mm 1 mps 716 mmHg 85%
    07:00 +26°C° 0 mm 0 mps 717 mmHg 77%
    08:00 +28°C° 0 mm 0 mps 717 mmHg 70%
    09:00 +31°C° 0.2 mm 1 mps 717 mmHg 63%
    10:00 +33°C° 0.2 mm 1 mps 717 mmHg 57%
    11:00 +35°C° 0.2 mm 2 mps 717 mmHg 51%
    12:00 +34°C° 0.4 mm 2 mps 716 mmHg 53%
    13:00 +34°C° 0.4 mm 2 mps 716 mmHg 56%
    14:00 +33°C° 0.4 mm 3 mps 715 mmHg 58%
    15:00 +31°C° 1.3 mm 2 mps 715 mmHg 68%
    16:00 +29°C° 1.3 mm 2 mps 715 mmHg 78%
    17:00 +27°C° 1.3 mm 1 mps 715 mmHg 87%
    18:00 +27°C° 1.5 mm 1 mps 715 mmHg 90%
    19:00 +26°C° 1.5 mm 1 mps 716 mmHg 92%
    20:00 +23°C° 1.5 mm 0 mps 716 mmHg 95%
    21:00 +23°C° 0.8 mm 0 mps 717 mmHg 95%
    22:00 +23°C° 0.8 mm 0 mps 717 mmHg 95%
    23:00 +23°C° 0.8 mm 0 mps 717 mmHg 95%

    25 June, Tuesday

    Time Temperature Precipitation Wind Pressure Humidity
    00:00 +23°C° 1.1 mm 0 mps 717 mmHg 95%
    01:00 +22°C° 1.1 mm 0 mps 716 mmHg 95%
    02:00 +22°C° 1.1 mm 0 mps 716 mmHg 95%
    03:00 +22°C° 0.2 mm 0 mps 716 mmHg 95%
    04:00 +22°C° 0.2 mm 0 mps 716 mmHg 95%
    05:00 +22°C° 0.2 mm 0 mps 716 mmHg 95%
    06:00 +23°C° 0.3 mm 0 mps 717 mmHg 89%
    07:00 +25°C° 0.3 mm 0 mps 717 mmHg 84%
    08:00 +26°C° 0.3 mm 0 mps 718 mmHg 79%
    09:00 +30°C° 0.7 mm 1 mps 718 mmHg 73%
    10:00 +31°C° 0.7 mm 1 mps 717 mmHg 68%
    11:00 +32°C° 0.7 mm 1 mps 717 mmHg 63%
    12:00 +32°C° 1 mm 1 mps 717 mmHg 63%
    13:00 +32°C° 1 mm 1 mps 716 mmHg 64%
    14:00 +32°C° 1 mm 1 mps 716 mmHg 64%
    15:00 +31°C° 0.8 mm 1 mps 716 mmHg 70%
    16:00 +30°C° 0.8 mm 1 mps 715 mmHg 75%
    17:00 +29°C° 0.8 mm 1 mps 715 mmHg 80%
    18:00 +26°C° 0.1 mm 0 mps 716 mmHg 83%
    19:00 +25°C° 0.1 mm 0 mps 716 mmHg 86%
    20:00 +23°C° 0.1 mm 0 mps 717 mmHg 89%
    21:00 +23°C° 0.1 mm 0 mps 717 mmHg 90%
    22:00 +23°C° 0.1 mm 0 mps 717 mmHg 91%
    23:00 +23°C° 0.1 mm 0 mps 717 mmHg 92%
    Show more